Flag for Myanmar Weather past 2 weeks in Yangon, Myanmar

Now
81 °F

Rain. Mostly cloudy.


Feels Like: 88 °F
Forecast: 78 / 89 °F
Wind: 6 mph from South

Location: Rangoon Airport

Current Time: Jul 1, 2015 at 7:39:57 PM

Latest Report: Jul 1, 2015 at 7:00 PM


Visibility: 3 mi

Pressure: 29.80 "Hg

Humidity: 94%

Dew point: 79 °F

Location of YangonLocation

Historic Weather in Yangon — Graph

°F

Yangon temperature yesterday

Maximum temperature yesterday: 84 °F (at 4:00 PM)
Minimum temperature yesterday: 75 °F (at 5:00 AM)
Average temperature yesterday: 80 °F

Past Weeks' High & Low Weather Summary

 TemperatureHumidityPressure
High90 °F (Jun 23, 1:00 PM)100% (Jun 16, 8:00 PM)29.92 "Hg (Jun 16, 8:00 PM)
Low75 °F (Jun 19, 9:30 PM)66% (Jun 20, 11:00 AM)29.62 "Hg (Jun 17, 4:30 PM)
Average80 °F92%29.75 "Hg
* Reported Jun 16 6:30 PM — Jul 1 6:30 PM, Yangon, Weather by CustomWeather, © 2015

Note: Actual official high and low records may vary slightly from our data, if they occured in-between our weather recording intervals... More about our weather records

Advertising

Yangon weather history for previous 24 hours

 ConditionsComfort  
Time TempWeatherWind HumidityBarometerVisibility
6:30 PM
Wed, Jul 1
82 °FMostly cloudy.5 mph94%29.77 "Hg4 mi
6:00 PM82 °FMostly cloudy.3 mph94%29.77 "Hg4 mi
5:30 PM82 °FMostly cloudy.3 mph94%29.77 "Hg4 mi
5:00 PM82 °FMostly cloudy.3 mph94%29.80 "Hg4 mi
4:30 PM86 °FMostly cloudy.8 mph75%29.80 "Hg2 mi
4:00 PM86 °FPartly sunny.8 mph75%29.80 "Hg4 mi
3:30 PM88 °FPartly sunny.10 mph70%29.80 "Hg4 mi
3:00 PM88 °FPartly sunny.9 mph70%29.80 "Hg4 mi
2:30 PM90 °FPartly sunny.6 mph67%29.80 "Hg4 mi
2:00 PM90 °FPartly sunny.8 mph67%29.80 "Hg4 mi
1:30 PM90 °FPartly sunny.10 mph67%29.83 "Hg4 mi
1:00 PM90 °FPartly sunny.8 mph67%29.83 "Hg4 mi
12:30 PM90 °FPartly sunny.9 mph67%29.86 "Hg4 mi
12:00 PM90 °FPartly sunny.9 mph67%29.86 "Hg4 mi
11:30 AM88 °FScattered clouds.9 mph66%29.86 "Hg5 mi
11:00 AM88 °FScattered clouds.8 mph66%29.86 "Hg5 mi
10:00 AM88 °FPassing clouds.7 mph70%29.89 "Hg5 mi
9:30 AM86 °FPassing clouds.5 mph75%29.89 "Hg5 mi
9:00 AM84 °FPassing clouds.6 mph84%29.89 "Hg4 mi
8:30 AM84 °FScattered clouds.2 mph84%29.89 "Hg4 mi
8:00 AM82 °FScattered clouds.3 mph84%29.89 "Hg4 mi
7:30 AM77 °FScattered clouds.3 mph89%29.86 "Hg4 mi
7:00 AM77 °FScattered clouds.2 mph89%29.86 "Hg4 mi
6:30 AM77 °FScattered clouds.2 mph89%29.86 "Hg4 mi
6:00 AM77 °FPassing clouds.3 mph89%29.86 "Hg4 mi
5:30 AM77 °FPassing clouds.2 mph94%29.83 "Hg4 mi
5:00 AM77 °FPassing clouds.2 mph94%29.83 "Hg4 mi
1:00 AM79 °FPartly cloudy.3 mph94%29.89 "Hg4 mi
12:30 AM79 °FPartly cloudy.2 mph94%29.89 "Hg4 mi
11:30 PM
Tue, Jun 30
79 °FPartly cloudy.2 mph94%29.89 "Hg4 mi
11:00 PM79 °FPartly cloudy.2 mph94%29.89 "Hg4 mi
10:30 PM79 °FPartly cloudy.3 mph94%29.89 "Hg4 mi
9:30 PM79 °FPassing clouds.3 mph94%29.86 "Hg4 mi
9:00 PM81 °FPassing clouds.2 mph84%29.86 "Hg4 mi
8:00 PM81 °FPassing clouds.5 mph84%29.86 "Hg4 mi
7:30 PM81 °FPassing clouds.6 mph84%29.83 "Hg4 mi
7:00 PM81 °FPartly sunny.5 mph84%29.83 "Hg4 mi
Weather by CustomWeather, © 2015

See weather overviewHow to use our weather pages